COSMOS 2251 DEB, 34689

Orbit data source: Space-Track

COSMOS 2251 DEB, 34689 is space debris in LEO originally from a launch on Wed, 16 Jun 1993 UTC launched from the Plesetsk Missile And Space Complex (PKMTR). The debris from Iridium 33, an American commercial communications satellite, has been tracked extensively since its accidental collision with the defunct Russian satellite Cosmos 2251 in 2009. This event, occurring at high speed in low Earth orbit (LEO), generated thousands of pieces of space debris, significantly increasing the risk of further collisions. The Iridium 33 debris cloud has impacted space traffic management and orbital debris mitigation strategies, making it a subject of ongoing study in space situational awareness.

Loading next visibility...
Identifier
34689, 1993-036YK
Orbit
LEO
Country
Flag of CISCIS
Related business
Manufacturer
Unknown
Mission
Spacecraft
Bus & Motor
Unknown
Mass
Unknown
Launch date (UTC)
1993-06-16 (33 years ago)
Launch vehicle
Unknown
Launch site
Plesetsk Missile And Space Complex (PKMTR)
Object type
Payload
Rocket body
Debris
Shape & HBR
Unknown shape, 0.1 m
Radar Cross Section
Small (<0.1 m²)

Expand to show TLE details & history
Last TLE update: 12 hours ago

TLE from 12 hours ago
0 COSMOS 2251 DEB
1 34689U 93036YK  26257.57671941  .00003765  00000-0  17803-2 0  9995
2 34689  74.0847 102.0965 0225491 103.9298 289.0254 14.07536228882196
Epoch: 2026-09-14T13:50Z
TLE epoch observation values (Epoch: 2026-09-14T13:50:28.557Z)
Latitude
29.26031°
Longitude
-89.93391°
Altitude
821.173 km
Speed
7.471 km/s
True Right ascension
07h 24m 57s
True Declination
29° 06' 55"
Sunlit
Object was in daylight at epoch
Visualization orbit readout
Latitude
Unknown
Longitude
Unknown
Altitude
Unknown
Speed
Unknown
Apparent Right ascension
Unknown
Apparent Declination
Unknown
Sunlit
N/A
Visualization observer readout
Local Sidereal Time
18:15:10
Azimuth
Unknown
Elevation
Unknown
Doppler factor
Unknown
Orbital elements
Apogee altitude
1,028.801 km
Perigee altitude
702.128 km
Semi-major axis
7,243.602 km
Eccentricity
0.02255
Inclination
74.0847°
RAAN
102.0965°
Arg. of periapsis
103.9298°
True anomaly
286.56073°
Mean anomaly
289.0254°
Eccentric anomaly
287.79525°
Mean motion
3.52056 °/min
Orbital period
102.26 mins
BSTAR
0.0017803
Loading maneuver chart data...
Computing Atmospheric mass density...

Documentation

Showing up to 5 results
|